| time (UTC) | temp C | wind direction | speed KPH | gust KPH | rain 1hr cm | rain 24hr cm | rain mn cm | humidity % | barometer mb |
| 20260505183524 | 13 | 349 | 3.2 | 9.7 | 0.00 | 0.00 | 0.00 | 70 | 1011.7 |
| 20260505182519 | 13 | 343 | 4.8 | 6.4 | 0.00 | 0.00 | 0.00 | 70 | 1011.5 |
| 20260505181534 | 13 | 335 | 3.2 | 6.4 | 0.00 | 0.00 | 0.00 | 70 | 1011.6 |
| 20260505180529 | 13 | 327 | 3.2 | 4.8 | 0.00 | 0.00 | 0.00 | 70 | 1011.6 |
| 20260505175523 | 13 | 336 | 3.2 | 4.8 | 0.00 | 0.00 | 0.00 | 69 | 1011.7 |
| 20260505174519 | 13 | 340 | 3.2 | 6.4 | 0.00 | 0.00 | 0.00 | 69 | 1011.7 |
| 20260505173533 | 13 | 344 | 4.8 | 9.7 | 0.00 | 0.00 | 0.00 | 68 | 1011.7 |
| 20260505172526 | 13 | 340 | 8.0 | 12.9 | 0.00 | 0.00 | 0.00 | 68 | 1011.8 |
| 20260505171521 | 13 | 343 | 6.4 | 11.3 | 0.00 | 0.00 | 0.00 | 68 | 1011.7 |
| 20260505170609 | 13 | 337 | 9.7 | 14.5 | 0.00 | 0.00 | 0.00 | 68 | 1011.8 |
| 20260505165604 | 13 | 331 | 9.7 | 14.5 | 0.00 | 0.00 | 0.00 | 67 | 1011.9 |
| 20260505164520 | 13 | 329 | 4.8 | 9.7 | 0.00 | 0.00 | 0.00 | 66 | 1011.8 |
| 20260505163516 | 14 | 332 | 6.4 | 12.9 | 0.00 | 0.00 | 0.00 | 65 | 1011.8 |
| 20260505162611 | 13 | 338 | 4.8 | 9.7 | 0.00 | 0.00 | 0.00 | 65 | 1011.8 |
| 20260505161527 | 13 | 329 | 6.4 | 11.3 | 0.00 | 0.00 | 0.00 | 64 | 1011.8 |
| 20260505160603 | 13 | 337 | 4.8 | 9.7 | 0.00 | 0.00 | 0.00 | 65 | 1011.9 |
| 20260505152526 | 13 | 333 | 6.4 | 11.3 | 0.00 | 0.00 | 0.00 | 66 | 1011.9 |
| 20260505151522 | 13 | 340 | 4.8 | 11.3 | 0.00 | 0.00 | 0.00 | 65 | 1012.0 |
| 20260505150518 | 13 | 353 | 3.2 | 6.4 | 0.00 | 0.00 | 0.00 | 65 | 1012.1 |
| 20260505140614 | 14 | 349 | 9.7 | 14.5 | 0.00 | 0.00 | 0.00 | 62 | 1012.1 |
| 20260505124521 | 13 | 333 | 8.0 | 17.7 | 0.00 | 0.00 | 0.00 | 68 | 1012.5 |
| 20260505123517 | 13 | 322 | 6.4 | 14.5 | 0.00 | 0.00 | 0.00 | 68 | 1012.5 |
| 20260505122533 | 13 | 345 | 6.4 | 14.5 | 0.00 | 0.00 | 0.00 | 66 | 1012.6 |
| 20260505121529 | 13 | 342 | 6.4 | 11.3 | 0.00 | 0.00 | 0.00 | 68 | 1012.6 |
| 20260505120525 | 13 | 359 | 8.0 | 14.5 | 0.00 | 0.00 | 0.00 | 68 | 1012.6 |
| 20260505115520 | 13 | 351 | 6.4 | 12.9 | 0.00 | 0.00 | 0.00 | 69 | 1012.7 |
| 20260505114517 | 12 | 349 | 6.4 | 14.5 | 0.00 | 0.00 | 0.00 | 71 | 1012.7 |
| 20260505113533 | 12 | 8 | 8.0 | 12.9 | 0.00 | 0.00 | 0.00 | 73 | 1012.8 |
| 20260505112528 | 12 | 27 | 8.0 | 14.5 | 0.00 | 0.00 | 0.00 | 74 | 1012.8 |
| 20260505111603 | 12 | 45 | 9.7 | 20.9 | 0.00 | 0.00 | 0.00 | 74 | 1013.0 |
| 20260505110520 | 12 | 36 | 12.9 | 20.9 | 0.00 | 0.00 | 0.00 | 73 | 1012.9 |
| 20260505101519 | 11 | 358 | 6.4 | 16.1 | 0.00 | 0.00 | 0.00 | 78 | 1013.0 |
| 20260505100536 | 11 | 8 | 6.4 | 14.5 | 0.00 | 0.00 | 0.00 | 78 | 1013.0 |
| 20260505095531 | 11 | 332 | 9.7 | 14.5 | 0.00 | 0.00 | 0.00 | 78 | 1013.1 |
| 20260505094607 | 11 | 333 | 6.4 | 12.9 | 0.00 | 0.00 | 0.00 | 79 | 1013.2 |
| 20260505093523 | 11 | 10 | 8.0 | 16.1 | 0.00 | 0.00 | 0.00 | 77 | 1013.2 |
| 20260505092519 | 11 | 26 | 6.4 | 14.5 | 0.00 | 0.00 | 0.00 | 79 | 1013.2 |
| 20260505091535 | 11 | 14 | 8.0 | 16.1 | 0.00 | 0.00 | 0.00 | 78 | 1013.3 |
| 20260505090531 | 11 | 10 | 8.0 | 14.5 | 0.00 | 0.00 | 0.00 | 79 | 1013.3 |
| 20260505085527 | 11 | 0 | 9.7 | 17.7 | 0.00 | 0.00 | 0.00 | 79 | 1013.3 |
| 20260505084523 | 11 | 6 | 8.0 | 16.1 | 0.00 | 0.00 | 0.00 | 80 | 1013.3 |
| 20260505083518 | 11 | 353 | 9.7 | 16.1 | 0.00 | 0.00 | 0.00 | 80 | 1013.4 |
| 20260505082614 | 11 | 6 | 8.0 | 14.5 | 0.00 | 0.00 | 0.00 | 81 | 1013.3 |
| 20260505081531 | 11 | 16 | 9.7 | 14.5 | 0.00 | 0.00 | 0.00 | 81 | 1013.3 |
| 20260505080606 | 11 | 20 | 8.0 | 14.5 | 0.00 | 0.00 | 0.00 | 80 | 1013.3 |
| 20260505075522 | 11 | 354 | 11.3 | 22.5 | 0.00 | 0.00 | 0.00 | 80 | 1013.3 |
| 20260505074518 | 11 | 357 | 8.0 | 16.1 | 0.00 | 0.00 | 0.00 | 81 | 1013.2 |
| 20260505073533 | 11 | 340 | 8.0 | 17.7 | 0.00 | 0.00 | 0.00 | 84 | 1013.2 |
| 20260505072529 | 11 | 340 | 8.0 | 17.7 | 0.00 | 0.00 | 0.00 | 85 | 1013.2 |
| 20260505071525 | 11 | 340 | 8.0 | 12.9 | 0.00 | 0.00 | 0.00 | 86 | 1013.3 |
| 20260505070521 | 10 | 335 | 6.4 | 11.3 | 0.00 | 0.00 | 0.00 | 87 | 1013.4 |
| 20260505065516 | 10 | 338 | 4.8 | 9.7 | 0.00 | 0.00 | 0.00 | 88 | 1013.4 |
| 20260505064531 | 10 | 342 | 4.8 | 9.7 | 0.00 | 0.00 | 0.00 | 88 | 1013.5 |
| 20260505063528 | 10 | 354 | 4.8 | 9.7 | 0.00 | 0.00 | 0.00 | 88 | 1013.3 |
| 20260505062523 | 10 | 9 | 3.2 | 4.8 | 0.00 | 0.00 | 0.00 | 89 | 1013.3 |
| 20260505061520 | 10 | 9 | 1.6 | 4.8 | 0.00 | 0.00 | 0.00 | 91 | 1013.4 |
| 20260505060535 | 10 | 340 | 4.8 | 12.9 | 0.00 | 0.00 | 0.00 | 92 | 1013.4 |
| 20260505055531 | 9 | 350 | 6.4 | 14.5 | 0.00 | 0.00 | 0.00 | 92 | 1013.3 |
| 20260505054527 | 9 | 341 | 6.4 | 12.9 | 0.00 | 0.00 | 0.00 | 92 | 1013.2 |
| 20260505053523 | 9 | 12 | 4.8 | 9.7 | 0.00 | 0.00 | 0.00 | 92 | 1013.3 |
| 20260505052518 | 9 | 24 | 4.8 | 11.3 | 0.00 | 0.00 | 0.00 | 92 | 1013.3 |
| 20260505051535 | 9 | 352 | 6.4 | 12.9 | 0.00 | 0.00 | 0.00 | 93 | 1013.4 |
| 20260505050530 | 9 | 10 | 4.8 | 9.7 | 0.00 | 0.00 | 0.00 | 93 | 1013.3 |
| 20260505041529 | 9 | 340 | 6.4 | 9.7 | 0.00 | 0.00 | 0.00 | 92 | 1013.6 |
| 20260505040605 | 9 | 333 | 4.8 | 6.4 | 0.00 | 0.00 | 0.00 | 92 | 1013.5 |
| 20260505035601 | 9 | 323 | 3.2 | 3.2 | 0.00 | 0.00 | 0.00 | 91 | 1013.6 |
| 20260505034517 | 10 | 15 | 0.0 | 1.6 | 0.00 | 0.00 | 0.00 | 91 | 1013.5 |
| 20260505033532 | 10 | 340 | 1.6 | 3.2 | 0.00 | 0.00 | 0.00 | 90 | 1013.6 |
| 20260505032528 | 10 | 354 | 1.6 | 3.2 | 0.00 | 0.00 | 0.00 | 90 | 1013.7 |
| 20260505031524 | 10 | 8 | 3.2 | 6.4 | 0.00 | 0.00 | 0.00 | 90 | 1013.7 |
| 20260505030600 | 10 | 345 | 3.2 | 6.4 | 0.00 | 0.00 | 0.00 | 90 | 1013.8 |
| 20260505025516 | 10 | 336 | 6.4 | 11.3 | 0.00 | 0.00 | 0.00 | 89 | 1013.8 |
| 20260505024612 | 10 | 335 | 4.8 | 9.7 | 0.00 | 0.00 | 0.00 | 90 | 1013.8 |
| 20260505023527 | 10 | 345 | 3.2 | 4.8 | 0.00 | 0.00 | 0.00 | 90 | 1013.8 |
| 20260505022523 | 10 | 2 | 1.6 | 4.8 | 0.00 | 0.00 | 0.00 | 89 | 1013.8 |
| 20260505021518 | 10 | 356 | 1.6 | 4.8 | 0.00 | 0.00 | 0.00 | 89 | 1013.7 |
| 20260505020533 | 10 | 360 | 3.2 | 4.8 | 0.00 | 0.00 | 0.00 | 89 | 1013.7 |
| 20260505015530 | 10 | 336 | 4.8 | 6.4 | 0.00 | 0.00 | 0.00 | 89 | 1013.8 |
| 20260505014525 | 10 | 334 | 3.2 | 3.2 | 0.00 | 0.00 | 0.00 | 89 | 1014.1 |
| 20260505013521 | 10 | 330 | 4.8 | 6.4 | 0.00 | 0.00 | 0.00 | 89 | 1014.1 |
| 20260505012557 | 10 | 327 | 1.6 | 4.8 | 0.00 | 0.00 | 0.00 | 88 | 1014.2 |
| 20260505011533 | 11 | 0.0 | 0.0 | 0.00 | 0.00 | 0.00 | 87 | 1014.2 | |
| 20260505010529 | 11 | 24 | 1.6 | 4.8 | 0.00 | 0.00 | 0.00 | 87 | 1014.1 |
| 20260505005605 | 10 | 35 | 1.6 | 4.8 | 0.00 | 0.00 | 0.00 | 87 | 1014.3 |
| 20260505004603 | 11 | 26 | 1.6 | 3.2 | 0.00 | 0.00 | 0.00 | 87 | 1014.3 |
| 20260505003516 | 11 | 36 | 1.6 | 4.8 | 0.00 | 0.00 | 0.00 | 87 | 1014.4 |
| 20260505002612 | 11 | 39 | 3.2 | 4.8 | 0.00 | 0.00 | 0.00 | 86 | 1014.4 |
| 20260505001528 | 11 | 10 | 3.2 | 6.4 | 0.00 | 0.00 | 0.00 | 86 | 1014.5 |
| 20260505000524 | 11 | 23 | 4.8 | 9.7 | 0.00 | 0.00 | 0.00 | 86 | 1014.5 |
| 20260504235520 | 11 | 9 | 4.8 | 6.4 | 0.00 | 0.00 | 0.00 | 85 | 1014.6 |
| 20260504234516 | 11 | 28 | 6.4 | 11.3 | 0.00 | 0.00 | 0.00 | 85 | 1014.6 |
| 20260504233532 | 11 | 5 | 4.8 | 11.3 | 0.00 | 0.00 | 0.00 | 85 | 1014.6 |
| 20260504232528 | 11 | 9 | 3.2 | 6.4 | 0.00 | 0.00 | 0.00 | 84 | 1014.6 |
| 20260504231525 | 11 | 9 | 4.8 | 9.7 | 0.00 | 0.00 | 0.00 | 84 | 1014.6 |
| 20260504230520 | 11 | 18 | 4.8 | 9.7 | 0.00 | 0.00 | 0.00 | 84 | 1014.5 |
| 20260504225536 | 11 | 10 | 4.8 | 11.3 | 0.00 | 0.00 | 0.00 | 84 | 1014.6 |
| 20260504224532 | 12 | 36 | 4.8 | 9.7 | 0.00 | 0.00 | 0.00 | 83 | 1014.6 |
| 20260504223528 | 12 | 23 | 4.8 | 11.3 | 0.00 | 0.00 | 0.00 | 83 | 1014.7 |
| 20260504222524 | 12 | 21 | 4.8 | 11.3 | 0.00 | 0.00 | 0.00 | 83 | 1014.7 |
| 20260504221519 | 12 | 20 | 4.8 | 9.7 | 0.00 | 0.00 | 0.00 | 83 | 1014.9 |
| 20260504220535 | 12 | 2 | 3.2 | 6.4 | 0.00 | 0.00 | 0.00 | 83 | 1014.9 |
| 20260504215531 | 12 | 18 | 4.8 | 11.3 | 0.00 | 0.00 | 0.00 | 84 | 1014.9 |
| 20260504214527 | 12 | 13 | 3.2 | 6.4 | 0.00 | 0.00 | 0.00 | 84 | 1014.9 |
| 20260504213523 | 12 | 13 | 1.6 | 4.8 | 0.00 | 0.00 | 0.00 | 84 | 1015.0 |
| 20260504212517 | 12 | 13 | 3.2 | 6.4 | 0.00 | 0.00 | 0.00 | 84 | 1014.9 |
| 20260504211533 | 12 | 31 | 4.8 | 6.4 | 0.00 | 0.00 | 0.00 | 84 | 1015.0 |
| 20260504210609 | 12 | 23 | 3.2 | 4.8 | 0.00 | 0.00 | 0.00 | 84 | 1014.9 |
| 20260504205524 | 12 | 355 | 3.2 | 6.4 | 0.00 | 0.00 | 0.00 | 84 | 1014.8 |
| 20260504204518 | 12 | 18 | 1.6 | 4.8 | 0.00 | 0.00 | 0.00 | 83 | 1014.9 |
| 20260504203533 | 12 | 21 | 3.2 | 4.8 | 0.00 | 0.00 | 0.00 | 84 | 1014.8 |
| 20260504202528 | 12 | 36 | 3.2 | 6.4 | 0.00 | 0.00 | 0.00 | 84 | 1014.8 |
| 20260504201524 | 12 | 32 | 3.2 | 4.8 | 0.00 | 0.00 | 0.00 | 83 | 1014.7 |
| 20260504200518 | 12 | 26 | 3.2 | 4.8 | 0.00 | 0.00 | 0.00 | 83 | 1014.7 |
| 20260504195534 | 12 | 30 | 3.2 | 4.8 | 0.00 | 0.00 | 0.00 | 82 | 1014.6 |
| 20260504194529 | 12 | 29 | 4.8 | 9.7 | 0.00 | 0.00 | 0.00 | 82 | 1014.6 |
| 20260504193524 | 12 | 20 | 3.2 | 9.7 | 0.00 | 0.00 | 0.00 | 81 | 1014.5 |
| 20260504192519 | 13 | 344 | 3.2 | 6.4 | 0.00 | 0.00 | 0.00 | 81 | 1014.4 |
| 20260504191534 | 13 | 17 | 3.2 | 6.4 | 0.00 | 0.00 | 0.00 | 80 | 1014.4 |
| 20260504190530 | 13 | 21 | 4.8 | 9.7 | 0.00 | 0.00 | 0.00 | 80 | 1014.3 |
| 20260504185525 | 13 | 15 | 4.8 | 9.7 | 0.00 | 0.00 | 0.00 | 79 | 1014.3 |
| 20260504184601 | 13 | 30 | 4.8 | 6.4 | 0.00 | 0.00 | 0.00 | 79 | 1014.2 |